This is the latest recevied weather packets stored in our database for station/object N0OQA. If no packets are shown the sender has not sent any weather packets the latest 10 day(s).
| Time | Temp. | Humidity | Pressure | Rain* | Wind** | Luminosity | Snow |
|---|---|---|---|---|---|---|---|
| 1788270371 | 17.78° C | 100% | 1017.7 hPa | 0 mm | - | - | - |
| 1788269470 | 17.78° C | 100% | 1017.5 hPa | 0 mm | - | - | - |
| 1788266766 | 15.56° C | 100% | 1017 hPa | 0 mm | - | - | - |
| 1788264055 | 15° C | 100% | 1016.5 hPa | 0 mm | - | - | - |
| 1788263754 | 15° C | 100% | 1016.5 hPa | 0 mm | - | - | - |
| 1788263154 | 15.56° C | 100% | 1016.4 hPa | 0 mm | - | - | - |
| 1788261360 | 16.11° C | 100% | 1016 hPa | 0 mm | - | - | - |
| 1788261050 | 16.11° C | 100% | 1016 hPa | 0 mm | - | - | - |
| 1788260750 | 16.11° C | 100% | 1015.9 hPa | 0 mm | - | - | - |
| 1788260465 | 15.56° C | 100% | 1015.9 hPa | 0 mm | - | - | - |
| 1788260150 | 16.11° C | 100% | 1016.1 hPa | 0 mm | - | - | - |
| 1788259249 | 16.11° C | 100% | 1016 hPa | 0 mm | - | - | - |
| 1788258648 | 16.11° C | 100% | 1016.1 hPa | 0 mm | - | - | - |
| 1788258048 | 15.56° C | 100% | 1016.1 hPa | 0 mm | - | - | - |
| 1788256246 | 16.11° C | 100% | 1015.7 hPa | 0 mm | - | - | - |
| 1788255946 | 15.56° C | 100% | 1015.6 hPa | 0 mm | - | - | - |
| 1788255645 | 16.11° C | 100% | 1015.6 hPa | 0 mm | - | - | - |
| 1788255045 | 16.11° C | 100% | 1015.5 hPa | 0 mm | - | - | - |
| 1788254744 | 16.11° C | 100% | 1015.6 hPa | 0 mm | - | - | - |
| 1788254137 | 16.11° C | 100% | 1015.4 hPa | 0 mm | - | - | - |
| 1788253837 | 16.11° C | 100% | 1015.4 hPa | 0 mm | - | - | - |
| 1788253536 | 16.11° C | 100% | 1015.4 hPa | 0 mm | - | - | - |
| 1788251430 | 16.11° C | 100% | 1015.3 hPa | 0 mm | - | - | - |
| 1788251133 | 16.11° C | 100% | 1015.4 hPa | 0 mm | - | - | - |
| 1788250829 | 16.67° C | 100% | 1015.3 hPa | 0 mm | - | - | - |
* Rain since midnight (hover to see other rain measurements)
** Current wind speed in m/s (hover to see current wind gust speed)